Location: Newark
(43.5831°N, 21.3381°E)
Time: 05:50:10
(UTC+00:00)

Envisat - Pass Details

Date: 17 December 2019
Orbit: 764 x 766 km, 98.1° (Epoch: 20 January)

Event Time Altitude Azimuth Distance (km) Brightness Sun altitude
Rises 16:34:52 0° 170° (S) 3,219 6.3 -16.6°
Reaches altitude 10° 16:37:10 10° 172° (S) 2,297 5.6 -17.0°
Maximum altitude 16:42:14 75° 257° (WSW) 798 3.2 -17.9°
Drops below altitude 10° 16:47:20 10° 343° (NNW) 2,313 5.5 -18.8°
Sets 16:49:40 0° 346° (NNW) 3,244 6.3 -19.2°
